sat.trackr.live / text

‹ back to catalog

HULIANWANG DIGUI-62

NORAD 65168 · 2025-174E

PAYLOAD ACTIVE UNKNOWN

§ Identity

Operator
Country
PRC
Launch date
2025-08-13
Launch site
WSC
Launch vehicle
Mass (kg)
RCS (m²)

External: N2YO · Heavens-Above · Gunter

§ Orbital elements

Epoch: 2026-09-21T22:09:21.523392Z

Period
108.73 min
Inclination
86.4936°
Eccentricity
0.0002321
Mean motion
13.24402062 rev/d
Perigee alt
1,166.2 km
Apogee alt
1,169.7 km
Semi-major
7,546.1 km
B*
5.2138e-5
RAAN
219.1515°
Arg perigee
73.5608°
Mean anomaly
286.5781°
Rev number
5,359

§ Raw data

HULIANWANG DIGUI-621 65168U 25174E   26264.92316578  .00000037  00000+0  52138-4 0  99982 65168  86.4936 219.1515 0002321  73.5608 286.5781 13.24402062 53598

JSON: /api/v1/satellites/65168 · /tle

For live sub-satellite position, see the globe view (requires WebGL).

§ Visibility from observer

Set your observer location to see the next 7 days of passes ≥ 10°. The values pass through the URL so the page stays shareable.

No JS? Fill the form by hand. The geolocation button needs JavaScript.